Location: Vesunti
(61.5000°N, 22.8333°E)
Time: 19:50:19
(UTC+00:00)

Cosmos 1484 Rocket - Pass Details

Date: 17 February 2020
Orbit: 507 x 559 km, 97.4° (Epoch: 30 March)

Event Time Altitude Azimuth Distance (km) Brightness Sun altitude
Rises 05:05:36 0° 13° (NNE) 2,697 6.4 -8.0°
Reaches altitude 10° 05:07:54 10° 1° (N) 1,811 5.4 -7.7°
Maximum altitude 05:11:15 28° 303° (WNW) 1,054 3.7 -7.3°
Drops below altitude 10° 05:14:38 10° 244° (WSW) 1,826 5.0 -6.9°
Sets 05:16:58 0° 233° (SW) 2,724 6.0 -6.6°
